Regional Weather Roundup
Issued by NWS

Home | Current Version | Previous Version | Text Only | Print | Product List | Glossary On
Versions: 1 2 3 4 5 6 7 8 9 10 11 12 13 14 15 16 17 18 19 20 21 22 23 24 25 26 27 28 29 30 31 32 33 34 35 36 37 38 39 40 41 42 43 44 45 46 47 48 49 50
000
ASUS44 KJAN 010310
RWRMS

MISSISSIPPI HOURLY WEATHER ROUNDUP
NATIONAL WEATHER SERVICE JACKSON MS
900 PM CST SAT FEB 28 2015

NOTE: "FAIR: INDICATES FEW OR NO CLOUDS BELOW 12,000 FEET WITH NO
SIGNIFICANT WEATHER AND/OR OBSTRUCTIONS TO VISIBILITY.

MSZ001>002-007>008-010>013-018>021-025>028-034>036-010400-
NORTHWEST MISSISSIPPI

CITY           SKY/WX    TMP DP  RH WIND       PRES   REMARKS
CLARKSDALE     CLOUDY    37  32  81 N8        30.40S WCI  31
CLEVELAND      CLOUDY    42  37  83 N8        30.37S
GREENWOOD        N/A    N/A N/A N/A MISG      30.34R
GREENVILLE     CLOUDY    44  38  79 N8        30.35S
OLIVE BRANCH   MOCLDY    37  27  65 N7        30.39R WCI  32
OXFORD         FAIR      45  28  53 CALM      30.39R
TUNICA         MOCLDY    34  30  86 N10       30.41S WCI  26
$$

MSZ003>006-009-014>017-022>024-029>033-037>039-010400-
NORTHEAST MISSISSIPPI

CITY           SKY/WX    TMP DP  RH WIND       PRES   REMARKS
COLUMBUS AFB   CLOUDY    48  35  59 CALM      30.39R
CORINTH        FAIR      48  32  53 E5        30.35S
GOLDN TRIANGLE PTCLDY    46  36  66 CALM      30.39R
STARKVILLE     MOCLDY    43  37  81 CALM      30.39S
TUPELO         MOCLDY    49  31  49 SE5       30.36F
$$

MSZ040-058-010400-
CENTRAL MISSISSIPPI

CITY           SKY/WX    TMP DP  RH WIND       PRES   REMARKS
JACKSON INTL   MOCLDY    54  33  45 E8        30.34R
JACKSON HAWKNS CLOUDY    56  32  40 SE6       30.35R
MERIDIAN KEY   CLEAR     43  38  82 CALM      30.39R
MERIDIAN NAS   CLEAR     51  37  58 SE5       30.39S
VICKSBURG      CLOUDY    49  40  71 E6        30.33S
$$

MSZ059>079-010400-
SOUTH MISSISSIPPI

CITY           SKY/WX    TMP DP  RH WIND       PRES   REMARKS
BROOKHAVEN     FAIR      48  37  66 CALM      30.36R
HATTIESBURG    MOCLDY    52  43  71 SE5       30.38R
MCCOMB         MOCLDY    55  43  63 CALM      30.35R
NATCHEZ        CLOUDY    54  39  58 E5        30.31F
PINE BELT      CLEAR     55  45  67 E8        30.37R
$$

MSZ080>082-010400-
COASTAL MISSISSIPPI

CITY           SKY/WX    TMP DP  RH WIND       PRES   REMARKS
BAY ST LOUIS   CLEAR     54  48  82 E7        30.37S
BILOXI         CLOUDY    56  53  89 SE9       30.38R
PASCAGOULA     CLOUDY    56  50  80 E5        30.39R
GULFPORT       CLOUDY    56  52  86 SE10      30.37S
$$


USA.gov is the U.S. government's official web portal to all federal, state and local government web resources and services.